Regional Weather Roundup
Issued by NWS

Home | Current Version | Previous Version | Text Only | Print | Product List | Glossary Off
Versions: 1 2 3 4 5 6 7 8 9 10 11 12 13 14 15 16 17 18 19 20 21 22 23 24 25 26 27 28 29 30 31 32 33 34 35 36 37 38 39 40 41 42 43 44 45 46 47 48 49 50

662
ASUS45 KBOU 162110
RWRCO

WEATHER ROUNDUP FOR COLORADO
NATIONAL WEATHER SERVICE DENVER/BOULDER CO
200 PM MST TUE JAN 16 2018

NOTE: "FAIR" INDICATES FEW OR NO CLOUDS BELOW 12000 FEET WITH NO
SIGNIFICANT WEATHER AND/OR OBSTRUCTIONS TO VISIBILITY.

COZ001>005-013-030-031-162200-
...NORTHWEST COLORADO...

CITY           SKY/WX    TMP DP  RH WIND       PRES   REMARKS
CRAIG          FAIR      24   5  44 CALM      30.36F
HAYDEN         FAIR      23  10  57 SE9       30.35F WCI  13
MEEKER         FAIR      33  10  38 CALM      30.32F
RABBIT EARS PA FAIR      21   9  58 W8        30.29F WCI  12
STEAMBOAT SPGS FAIR      17   4  55 CALM      30.35F
WALDEN         FAIR      21  -6  30 SE5       30.33F WCI  15
$$

COZ006>008-011-162200-
...WEST CENTRAL VALLEYS...

CITY           SKY/WX    TMP DP  RH WIND       PRES   REMARKS
GRAND JUNCTION FAIR      42  16  34 S7        30.34F
MONTROSE       FAIR      38  15  39 NW6       30.35F
EAGLE          FAIR      29   8  41 CALM      30.39F
RIFLE          FAIR      37  13  37 CALM      30.34F
DELTA          FAIR      41  17  36 CALM      30.35F
NUCLA          FAIR      41  14  33 N3        30.36F
$$

COZ017>023-064>068-162200-
...SOUTHWEST COLORADO...

CITY           SKY/WX    TMP DP  RH WIND       PRES   REMARKS
DURANGO        FAIR      39  22  50 VRB3      30.31F
CORTEZ         FAIR      43  22  43 S5        30.32F
PAGOSA SPRINGS FAIR      37  18  46 CALM      30.31F
TELLURIDE      FAIR      38  -9  13 W10       30.31S
WOLF CREEK PAS FAIR      27   9  46 S9        30.35F WCI  17
$$

COZ009-010-012-014-032>034-037-058>063-162200-
...CENTRAL COLORADO...

CITY           SKY/WX    TMP DP  RH WIND       PRES   REMARKS
ASPEN          FAIR      32   7  35 N3        30.30F
BUENA VISTA    FAIR      36 -10  13 S6        30.26F
COPPER MTN     NOT AVBL
BERTHOUD PASS  FAIR      10   0  61 NW12G21   30.27S WCI  -4
COTTONWOOD PAS NOT AVBL
GUNNISON       FAIR      29  14  53 CALM      30.33F
KREMMLING      FAIR      23   1  39 CALM      30.40F
LEADVILLE      FAIR      31 -10  16 NW9G18    30.26S WCI  23
MONARCH PASS   FAIR      23  -2  33 W23G29    30.39S WCI   7
SALIDA         FAIR      36  10  34 CALM      30.35F
SUNLIGHT       FAIR      27 -15  15 SW5       30.35S WCI  21
WILKERSON PASS FAIR      28 -18  12 CALM      30.28F
$$

COZ069>075-162200-
...SAN LUIS VALLEY/SANGRE DE CRISTO MOUNTAINS...

CITY           SKY/WX    TMP DP  RH WIND       PRES   REMARKS
ALAMOSA        FAIR      28  14  55 CALM      30.33F
DEL NORTE      FAIR      29  12  49 E7        30.33F WCI  22
LA VETA PASS   LGT SNOW  23  18  80 SW16G24     N/A  WCI  10
SAGUACHE       FAIR      27  16  63 S6        30.34F WCI  20
$$

COZ035-036-038>040-162200-
...NORTHERN COLORADO FRONT RANGE...

CITY           SKY/WX    TMP DP  RH WIND       PRES   REMARKS
DENVER INTL AP FAIR      32  -5  20 SE3       30.32F
DMNS CITY PARK NOT AVBL
AURORA         MOSUNNY   33  -3  21 E3        30.32F
FRONT RANGE AP MOSUNNY   34   1  25 SE5       30.33F WCI  30
ERIE MUNI ARPT FAIR      33  11  41 E3        30.38F
BOULDER MUN AP FAIR      32  18  55 N3        30.31F
CENTENNIAL     FAIR      33  -2  22 CALM      30.30F
BROOMFIELD     MOSUNNY   34   7  32 SE9       30.32  WCI  26
FORT COLLINS   FAIR      24  13  62 S8        30.34  WCI  15
LONGMONT       FAIR      34  16  48 CALM      30.35F
$$

COZ041-046-047-076>085-087-088-162200-
...PIKES PEAK/PALMER DIVIDE AND SOUTHERN FOOTHILLS...

CITY           SKY/WX    TMP DP  RH WIND       PRES   REMARKS
COLO. SPRINGS  FAIR      31  12  45 S7        30.33F WCI  24
A. F. ACADEMY  FAIR      32  -1  24 S7        30.30F WCI  26
SCHRIEVER AFB  FAIR      29   3  32 SW8       30.33F WCI  21
CHEYENNE MTN   FAIR      28  15  58 SE9       30.24F WCI  19
ELLICOTT         N/A    N/A N/A N/A S3        30.33F
FALCON         FAIR      32   1  26 S8        30.31F WCI  25
FORT CARSON    FAIR      31   9  38 S10       30.32F WCI  23
LIMON          FAIR      31 -12  15 MISG      30.35F
MONUMENT HILL  FAIR      30   5  34 CALM      30.30F
CANON CITY     FAIR      32  14  47 E5        30.35F WCI  27
WALSENBURG     FAIR      34  16  47 E6        30.33F WCI  29
TRINIDAD       FAIR      32  10  40 SE8       30.36F WCI  25
$$

COZ042>045-048>051-090-091-162200-
...NORTHEAST COLORADO...

CITY           SKY/WX    TMP DP  RH WIND       PRES   REMARKS
GREELEY ARPT   NOT AVBL
AKRON          FAIR      24   3  40 S8        30.38F WCI  15
BURLINGTON     FAIR      25  -7  24 S6        30.44F WCI  18
WRAY           FAIR      28  -2  26 CALM      30.47F
YUMA           FAIR      25   1  36 SW6       30.42F WCI  18
STERLING       FAIR      28   1  31 SW9       30.39F WCI  20
HOLYOKE        FAIR      30   9  40 SW9       30.44F WCI  22
FORT MORGAN    FAIR      29  -1  28 S5        30.38F WCI  23
$$

COZ086-089-092>099-162200-
...SOUTHEAST COLORADO...

CITY           SKY/WX    TMP DP  RH WIND       PRES   REMARKS
PUEBLO         FAIR      30  11  45 S6        30.39F WCI  24
LA JUNTA       FAIR      30   2  30 VRB5      30.44F WCI  25
LAMAR          FAIR      28   0  29 CALM      30.48F
SPRINGFIELD      N/A     29   1  30 S5        30.45F WCI  24
$$




USA.gov is the U.S. government's official web portal to all federal, state and local government web resources and services.